FW9659 Weather Reports


time (UTC)temp
F
wind
direction
speed
knots
gust
knots
rain 1hr
in
rain 24hr
in
rain mn
in
humidity
%
barometer
mb
20211026171549 60 301 0.0 5.2 0.00 0.00 0.00 63 1017.9
20211026170139 61 68 0.0 3.5 0.00 0.00 0.00 65 1017.8
20211026164607 60 52 1.7 6.1 0.00 0.00 0.00 66 1018.1
20211026163114 59 291 0.9 3.5 0.00 0.00 0.00 65 1018.2
20211026161735 57 8 1.7 6.1 0.00 0.00 0.00 68 1018.8
20211026160058 58 326 1.7 4.3 0.00 0.00 0.00 67 1018.6
20211026154604 57 303 0.9 7.0 0.00 0.00 0.00 71 1019.0
20211026153043 56 300 0.9 4.3 0.00 0.00 0.00 70 1018.8
20211026151610 55 0 0.9 5.2 0.00 0.00 0.00 73 1019.0
20211026150103 55 315 1.7 6.1 0.00 0.00 0.00 73 1018.8
20211026144724 54 307 1.7 7.0 0.00 0.00 0.00 74 1018.8
20211026143042 53 350 2.6 6.1 0.00 0.00 0.00 76 1018.9
20211026141652 53 41 1.7 4.3 0.00 0.00 0.00 78 1018.9
20211026140115 52 339 0.9 3.5 0.00 0.00 0.00 79 1018.8
20211026134655 52 319 0.9 3.5 0.00 0.01 0.00 80 1018.7
20211026133116 52 330 0.9 3.5 0.00 0.01 0.00 81 1018.2
20211026131551 51 318 0.9 2.6 0.00 0.01 0.00 84 1018.4
20211026130108 51 352 0.0 3.5 0.00 0.01 0.00 84 1018.0
20211026124558 51 0 0.0 1.7 0.00 0.25 0.00 84 1018.2
20211026123120 51 6 0.9 2.6 0.00 0.25 0.00 83 1017.6
20211026121546 51 353 0.0 4.3 0.00 0.25 0.00 83 1017.9
20211026120041 51 7 0.9 3.5 0.00 0.25 0.00 82 1017.7
20211026114711 51 305 0.0 3.5 0.00 0.26 0.00 82 1017.9
20211026113106 51 307 0.9 4.3 0.00 0.26 0.00 81 1017.6
20211026111610 51 316 1.7 5.2 0.00 0.26 0.00 81 1017.8
20211026110042 51 319 0.9 7.0 0.00 0.26 0.00 81 1017.5
20211026104631 51 337 0.9 7.8 0.00 0.26 0.00 81 1017.7
20211026103127 51 323 1.7 4.3 0.00 0.26 0.00 81 1017.1
20211026101553 51 326 2.6 6.1 0.00 0.26 0.00 82 1017.2
20211026100144 51 326 0.9 4.3 0.00 0.26 0.00 82 1017.0
20211026094701 51 83 1.7 4.3 0.00 0.26 0.00 82 1017.0
20211026093119 52 49 2.6 7.0 0.00 0.26 0.00 81 1016.9
20211026091653 51 335 1.7 7.0 0.00 0.26 0.00 81 1016.7
20211026090101 52 325 0.9 5.2 0.00 0.26 0.00 81 1016.7
20211026084752 52 308 0.9 7.0 0.00 0.26 0.00 80 1016.7
20211026083131 52 16 2.6 10.4 0.00 0.26 0.00 79 1016.6
20211026081621 52 345 1.7 7.8 0.00 0.26 0.00 79 1016.8
20211026080046 52 347 0.9 6.1 0.00 0.26 0.00 80 1016.7
20211026074544 52 0 0.0 8.7 0.00 0.26 0.00 79 1016.7
20211026073109 52 356 1.7 7.8 0.00 0.26 0.00 78 1016.9
20211026071617 52 42 3.5 7.8 0.00 0.26 0.00 78 1016.9
20211026070137 52 0 0.0 6.1 0.00 0.26 0.00 80 1017.0
20211026064612 52 352 0.9 3.5 0.00 0.26 0.00 79 1017.3
20211026063142 52 25 1.7 7.0 0.00 0.26 0.00 78 1017.2
20211026061610 52 0 0.0 1.7 0.00 0.26 0.00 80 1017.6
20211026060119 53 352 0.0 5.2 0.00 0.26 0.00 78 1017.7
20211026054548 53 0 1.7 7.0 0.00 0.26 0.00 78 1017.5
20211026053106 53 332 2.6 6.1 0.00 0.26 0.00 77 1017.7
20211026051611 53 358 2.6 6.1 0.00 0.26 0.00 78 1017.8
20211026050045 53 32 0.9 7.8 0.00 0.26 0.00 78 1018.0
20211026044609 53 0 0.9 5.2 0.00 0.26 0.26 78 1017.7
20211026043114 54 20 0.9 5.2 0.00 0.26 0.26 77 1017.9
20211026041615 54 60 0.9 5.2 0.00 0.26 0.26 77 1017.6
20211026040123 54 318 0.9 5.2 0.00 0.26 0.26 76 1017.8
20211026034624 54 87 0.9 5.2 0.00 0.26 0.26 77 1017.7
20211026033058 54 333 0.0 9.6 0.00 0.26 0.26 78 1017.9
20211026031604 54 297 0.9 5.2 0.00 0.26 0.26 79 1017.6
20211026030101 54 78 0.9 6.1 0.00 0.26 0.26 79 1018.0
20211026024627 54 282 1.7 5.2 0.00 0.26 0.26 80 1017.5
20211026023059 54 315 0.9 6.1 0.00 0.26 0.26 81 1017.4
20211026021553 53 236 0.9 3.5 0.00 0.26 0.26 81 1017.1
20211026020055 53 11 0.9 3.5 0.00 0.26 0.26 81 1017.2
20211026014639 54 63 0.9 5.2 0.00 0.26 0.26 82 1016.8
20211026013103 54 0 0.0 4.3 0.00 0.26 0.26 81 1016.9
20211026011545 55 319 0.0 3.5 0.00 0.26 0.26 80 1016.5
20211026010057 55 0 0.9 4.3 0.00 0.26 0.26 79 1016.7
20211026004601 56 31 0.9 6.1 0.00 0.26 0.26 79 1016.3
20211026003106 56 0 1.7 7.8 0.00 0.26 0.26 78 1016.4
20211026001556 57 300 0.9 13.0 0.00 0.26 0.26 78 1016.0
20211026000053 58 281 0.9 6.1 0.00 0.26 0.26 80 1016.0
20211025234612 59 353 2.6 8.7 0.00 0.26 0.26 78 1015.3
20211025233110 60 8 1.7 7.8 0.00 0.26 0.26 79 1015.4
20211025231552 60 332 0.9 6.1 0.00 0.26 0.26 78 1015.0
20211025230059 61 273 0.9 6.1 0.00 0.26 0.26 77 1014.8
20211025224633 62 275 1.7 6.1 0.00 0.26 0.26 77 1014.4
20211025223047 62 316 2.6 11.3 0.00 0.26 0.26 75 1014.2
20211025221647 63 0 1.7 8.7 0.00 0.26 0.26 75 1013.9
20211025220104 64 334 1.7 8.7 0.00 0.26 0.26 74 1013.6
20211025214633 66 266 2.6 10.4 0.00 0.26 0.26 74 1013.3
20211025213100 67 283 3.5 8.7 0.00 0.26 0.26 73 1013.2
20211025211544 70 319 2.6 10.4 0.00 0.26 0.26 70 1012.8
20211025210113 73 75 0.9 9.6 0.00 0.26 0.26 64 1012.5
20211025204545 73 296 3.5 7.8 0.00 0.26 0.26 62 1012.3
20211025203114 75 183 2.6 7.0 0.00 0.26 0.26 61 1012.3
20211025201618 75 357 2.6 6.1 0.00 0.26 0.26 57 1012.1
20211025200053 75 2 2.6 10.4 0.00 0.26 0.26 55 1011.9
20211025194601 75 38 1.7 12.2 0.00 0.26 0.26 54 1011.8
20211025193059 77 105 1.7 6.1 0.00 0.26 0.26 53 1011.6
20211025191655 77 103 2.6 7.0 0.00 0.26 0.26 56 1011.4
20211025190102 75 285 1.7 7.0 0.00 0.26 0.26 67 1011.4
20211025184650 75 203 2.6 9.6 0.00 0.26 0.26 67 1011.4
20211025183228 75 321 2.6 7.8 0.00 0.26 0.26 67 1011.4
20211025181617 77 112 1.7 5.2 0.00 0.26 0.26 68 1011.3
20211025180109 75 112 2.6 8.7 0.00 0.26 0.26 71 1011.5
20211025174615 75 240 1.7 7.8 0.00 0.26 0.26 72 1011.7
20211025173138 72 141 1.7 5.2 0.00 0.26 0.26 80 1012.1